SCP
0 0 0 0 0 0 0 0 0 0 0 0 0 0 0 0 0 0 0 0 0 0 0 0 0 0 0 0 -0 -0 -0 0 0 0 0 0 0 0 0 0 0 0 0 0
0 0 0 0 0 0 0 0 0 0 0 0 0 0 0 0 0 0 0 0 0 0 0 0 0 0 0 0 -0 -0 0 0 0 0 0 0 0 0 0 0 0 0 0 0
0 0 0 0 0 0 0 0 0 0 0 0 0 0 0 0 0 0 0 0 0 0 0 0 0 0 0 -0 -0 0 -0 -0 0 0 0 0 0 0 0 0 0 0 0 0
0 0 0 0 0 0 0 0 0 0 0 0 0 0 0 0 0 0 0 0 0 0 0 0 0 0 0 -0 0 0 0 -0 -0 0 0 0 0 0 0 0 0 0 0 0
0 0 0 0 0 0 0 0 0 0 0 0 0 0 0 0 0 0 0 0 0 0 0 0 0 0 0 0 0 0 0 0 0 0 0 0 0 0 0 0 0 0 0 0
0 0 0 0 0 0 0 0 0 0 0 0 0 0 0 0 0 0 0 0 0 0 0 0 0 0 0 0 0 0 0 0 0 0 0 0 0 0 0 0 0 0 0 0
0 0 0 0 0 0 0 0 0 0 0 0 0 0 0 0 0 0 0 0 0 0 0 0 0 0 0 0 0 0 0 0 0 0 0 0 0 0 0 0 0 0 0 0
0 0 0 0 0 0 0 0 0 0 0 0 0 0 0 0 0 0 0 0 0 0 0 0 0 0 0 0 0 0 0 0 0 0 0 -0 0 0 0 0 0 0 0 0
0 0 0 0 0 0 0 0 0 0 0 0 0 0 0 0 0 0 0 0 0 0 0 0 0 0 0 0 0 0 0 0 0 0 0 -0 -0 0 0 0 0 0 0 0
0 0 0 0 0 0 0 0 0 0 0 0 0 0 0 0 0 0 0 0 0 0 0 0 0 0 0 0 0 0 0 0 0 0 0 0 0 0 0 0 0 0 0 0
0 0 0 0 0 0 0 0 0 0 0 0 0 0 0 0 0 0 0 0 0 0 0 0 0 0 0 0 0 0 0 0 0 0 0 0 0 0 0 0 0 0 0 0
0 0 0 0 0 0 0 0 0 0 0 0 0 0 0 0 0 0 0 0 0 0 0 0 0 0 0 0 0 0 0 0 0 0 0 0 0 0 0 0 0 0 0 0
0 0 0 0 0 0 0 0 0 0 0 0 0 0 0 0 0 0 0 0 0 0 0 0 0 0 0 0 0 0 0 0 0 0 0 0 0 0 0 0 0 0 0 0
0 0 0 0 0 0 0 0 0 0 0 0 0 0 0 0 0 0 0 0 0 0 0 0 0 0 0 0 0 0 0 0 0 0 0 0 0 -0 0 0 0 0 0 0
0 0 0 0 0 0 0 0 0 0 0 0 0 0 0 0 0 0 0 0 0 0 0 0 0 0 0 0 0 0 0 0 0 0 0 -0 -0 -0 0 0 0 0 0 0
0 0 0 0 0 0 0 0 0 0 0 0 0 0 0 0 0 0 0 0 0 0 0 0 0 0 0 0 0 -0 0 0 0 0 0 -0 0 0 0 0 0 0 0 0
0 0 0 0 0 0 0 0 0 0 0 0 0 0 0 0 0 0 0 0 0 0 0 0 0 0 0 0 -0 -0 0 0 0 0 0 0 0 0 0 0 0 0 0 0
0 0 0 0 0 0 0 0 0 0 0 0 0 0 0 0 0 0 0 0 0 0 0 0 0 0 0 -0 -0 -0 0 0 0 0 0 0 0 0 0 0 0 0 0 0
0 0 0 0 0 0 0 0 0 0 0 0 0 0 0 0 0 0 0 0 0 0 0 0 0 0 0 -0 -0 -0 0 0 -0 0 0 0 0 0 0 0 0 0 0 0
0 0 0 0 0 0 0 0 0 0 0 0 0 0 0 0 0 0 0 0 0 0 0 0 0 -0 -0 -0 0 0 0 0 0 0 0 0 0 0 0 0 0 0 0 0
0 0 0 0 0 0 0 0 0 0 0 0 0 0 0 0 0 0 0 0 0 0 0 0 -0 -0 -0 0 0 0 0 0 0 0 0 0 0 0 0 0 0 0 0 0
0 0 0 0 0 0 0 0 0 0 0 0 0 0 0 0 0 0 0 0 0 0 0 0 -0 -0 -0 0 0 0 0 0 0 0 0 0 0 0 0 0 0 0 0 0
0 0 0 0 0 0 0 0 0 0 0 0 0 0 0 0 0 0 0 0 0 0 -0 -0 -0 -0 0 0 0 0 0 0 0 0 0 0 0 0 0 0 0 0 0 0
0 0 0 0 0 0 0 0 0 0 0 0 0 0 0 0 0 0 0 0 0 0 -0 -0 -0 0 0 0 0 0 0 0 0 0 0 0 0 0 0 0 0 0 0 0
0 0 0 0 0 0 0 0 0 0 0 0 0 0 0 0 0 0 0 -0 -0 -0 -0 -0 -0 -0 0 0 0 0 0 0 0 0 0 0 0 0 0 0 0 0 0 0
0 0 0 0 0 0 0 -0 -0 0 0 0 0 0 0 0 0 0 -0 -0 -0 -0 -0 0 -0 -0 0 0 0 0 0 0 0 0 0 0 0 0 0 0 0 0 0 0
0 0 0 0 0 0 0 0 -0 0 0 0 0 0 0 0 0 0 0 0 0 -0 0 0 0 0 0 0 0 0 0 0 0 0 0 0 0 0 0 0 0 0 0 0
Wind_Speed_500mb
21 20 19 21 20 20 19 12 5 1 5 7 3 3 7 12 12 7 10 6 9 7 6 7 5 7 4 7 6 8 2 4 2 7 4 0 4 3 7 8 7 5 7 10
22 21 17 19 17 15 14 11 7 8 8 1 5 11 9 7 6 7 4 7 7 4 7 7 6 8 0 3 7 5 8 5 6 5 7 5 5 8 6 10 7 7 9 10
25 22 19 19 16 11 9 5 4 3 14 7 3 6 9 9 10 11 11 9 5 5 6 5 9 7 2 6 1 1 2 1 6 8 8 5 6 6 7 9 7 8 11 8
27 26 22 21 18 10 6 4 5 2 5 6 4 4 6 9 10 7 10 8 4 7 8 10 5 5 10 3 2 4 4 5 3 8 8 3 5 9 11 13 8 10 8 13
27 27 27 25 25 15 14 6 4 3 7 11 4 4 6 2 11 5 9 4 13 6 7 9 12 5 4 7 5 3 3 3 6 6 5 4 8 11 9 9 6 9 8 10
29 26 33 30 31 21 14 12 10 6 6 3 1 7 4 3 11 14 13 11 8 11 9 14 18 17 16 10 6 2 4 4 6 8 8 11 12 11 12 8 7 11 11 15
35 38 36 37 34 28 24 12 9 7 7 3 8 5 10 11 7 9 43 37 7 7 21 22 17 12 10 8 1 6 7 6 4 5 8 3 8 2 1 8 7 6 3 8
48 46 40 42 39 33 27 22 15 6 6 10 18 19 10 21 33 11 14 15 11 21 11 6 9 8 8 5 2 3 2 8 4 4 4 13 3 0 3 4 10 14 13 9
50 46 42 43 40 39 34 28 21 13 2 10 22 7 10 5 7 11 7 14 14 8 6 5 1 6 7 5 1 6 7 8 7 4 4 8 8 2 2 3 10 8 17 13
42 43 44 40 43 42 37 28 26 16 9 18 19 8 5 11 5 5 11 22 10 5 4 3 6 8 5 5 8 8 2 5 8 5 5 15 10 3 2 8 12 4 16 27
44 40 38 41 45 45 40 38 33 26 15 34 28 19 17 17 7 2 14 15 6 7 2 5 6 6 6 5 5 10 12 10 6 4 2 12 12 8 9 8 2 2 8 23
44 40 42 42 42 43 44 45 37 35 33 25 20 27 29 30 28 26 9 6 14 8 3 1 2 5 2 2 6 4 3 11 8 16 11 9 23 8 11 2 7 9 10 17
66 48 47 42 40 38 41 38 28 20 23 44 57 53 24 30 42 34 15 11 9 5 15 6 5 8 6 4 10 4 6 8 5 5 6 17 33 27 30 14 12 13 11 12
54 52 49 43 40 38 37 34 25 26 9 8 17 16 30 27 27 29 33 47 52 54 40 14 7 4 8 6 6 5 6 10 7 10 19 22 31 28 27 24 17 19 18 17
55 55 49 43 41 37 34 31 33 28 18 5 16 39 50 46 40 43 42 37 49 45 9 7 7 9 2 2 3 8 15 13 9 12 19 7 8 7 25 33 29 24 24 32
56 55 51 45 39 37 30 17 38 43 32 6 6 16 39 36 20 16 24 39 37 29 16 13 16 22 9 4 7 14 37 50 47 12 6 14 13 13 20 32 30 26 22 18
59 55 49 42 41 40 35 11 6 10 31 8 9 12 11 17 25 30 26 26 25 21 14 17 30 21 11 3 17 7 28 37 41 36 21 10 19 11 23 30 31 28 23 26
62 54 48 44 37 31 37 22 18 10 9 9 4 6 13 9 7 9 18 17 25 20 14 9 10 11 11 9 19 32 46 59 40 29 29 20 15 19 32 34 38 37 39 40
58 51 49 42 37 27 35 34 32 25 13 6 8 4 6 7 8 8 12 13 4 12 8 10 11 7 11 15 29 38 45 31 18 26 29 20 24 33 40 41 41 40 43 39
65 65 40 16 28 18 24 22 16 14 18 17 10 12 8 6 9 3 2 0 4 4 13 16 8 16 54 62 44 32 25 26 31 32 27 33 37 44 48 43 39 35 40 37
75 26 17 33 46 25 14 12 14 18 8 14 20 49 21 19 6 6 8 4 2 6 9 12 8 10 21 60 87 95 86 60 40 34 27 26 27 48 48 45 38 38 36 30
54 40 49 51 15 10 10 10 9 10 10 18 14 23 41 19 13 7 10 5 2 12 2 3 8 8 37 42 61 75 73 65 57 42 31 30 31 43 46 46 45 37 31 26
70 29 18 17 14 12 14 17 9 10 13 24 29 9 27 19 9 6 5 8 11 3 1 8 9 24 35 48 45 28 30 44 53 47 31 36 43 48 46 46 40 35 31 25
18 17 15 13 12 12 10 9 13 20 25 34 44 14 11 11 9 5 6 4 4 6 4 9 7 41 39 26 29 35 51 52 53 43 45 52 55 52 45 40 38 33 27 21
15 18 15 15 19 19 20 37 21 25 15 36 27 9 8 3 6 5 5 4 8 10 10 9 26 34 30 35 43 49 55 57 52 54 59 58 56 52 47 39 34 26 21 16
20 13 9 8 16 7 20 39 41 28 17 33 14 5 5 6 5 7 13 11 12 8 6 22 32 35 24 42 51 53 55 56 58 63 61 59 55 53 49 42 31 23 17 14
16 9 26 26 28 23 34 37 40 41 28 6 9 11 11 4 5 6 9 11 10 6 28 43 47 35 29 46 51 54 55 58 63 65 60 56 55 51 46 41 32 24 18 13
Wind_Direction_500mb
275 289 298 305 316 317 319 319 344 275 163 350 11 226 202 311 295 349 278 253 228 240 291 285 291 286 213 354 332 341 124 141 196 187 265 263 133 202 192 121 206 94 136 278
258 275 292 296 311 317 320 314 290 236 241 308 315 296 283 255 288 284 273 275 218 201 271 297 235 293 232 323 12 25 353 1 358 27 20 16 159 238 97 81 74 185 132 264
253 257 277 287 294 305 309 309 348 226 215 249 215 325 280 297 302 268 273 262 288 318 299 231 294 305 314 332 81 91 201 219 171 194 222 179 257 217 153 129 121 176 217 253
245 250 257 271 269 272 261 250 259 195 275 276 226 335 283 297 339 310 311 312 281 316 305 314 319 304 313 161 12 58 76 221 211 247 238 263 259 242 187 198 174 165 239 205
237 246 247 251 254 248 230 231 233 241 270 285 278 198 253 305 331 275 308 227 309 320 261 245 291 338 306 286 346 53 45 278 348 305 334 316 276 265 222 223 179 259 170 251
240 241 244 237 244 234 222 229 239 267 279 288 118 233 224 341 339 284 260 310 317 299 280 295 291 280 273 261 298 274 42 52 42 278 345 331 298 235 203 203 188 161 190 227
251 247 234 232 235 232 232 227 210 201 267 229 215 280 321 292 311 264 292 293 231 296 312 296 278 279 269 246 20 195 133 100 92 254 1 284 250 255 253 228 254 180 156 188
247 240 226 224 225 228 232 237 219 226 264 264 290 274 286 309 306 269 260 289 300 317 323 1 349 336 329 239 220 181 153 122 89 110 213 288 339 155 191 175 279 197 187 146
236 227 222 220 218 223 227 228 227 211 199 247 259 298 287 280 295 321 280 325 319 309 76 63 238 252 263 272 211 100 75 69 119 114 115 236 249 261 6 66 298 198 163 155
238 224 218 218 219 217 229 230 226 207 226 268 264 245 258 307 326 285 317 342 333 341 77 134 188 255 224 248 190 177 96 23 167 148 228 286 244 236 90 80 247 34 185 177
232 228 224 224 220 215 219 230 221 206 233 264 260 249 254 277 300 169 320 346 352 2 70 153 245 209 251 300 196 178 175 148 186 89 111 292 175 112 178 216 48 125 152 186
226 230 228 223 219 215 219 225 229 231 230 253 258 258 253 265 268 274 263 255 335 279 43 278 323 291 306 162 275 5 245 187 181 180 215 246 201 201 202 192 176 179 164 167
231 227 226 219 213 215 221 229 224 218 244 266 266 266 281 258 253 250 247 271 256 290 11 333 268 258 130 213 246 254 243 171 196 66 263 238 246 244 242 230 221 193 184 182
213 222 218 214 212 213 222 228 220 217 220 254 272 282 265 267 241 241 242 260 260 266 288 307 255 222 195 237 248 219 223 143 184 263 277 267 265 248 243 217 200 189 179 186
208 215 211 210 212 210 217 226 228 225 216 280 294 284 274 261 253 245 257 250 249 247 251 224 245 246 218 243 41 242 195 196 176 232 235 217 232 260 221 206 199 199 189 169
206 207 207 205 199 202 201 241 241 232 228 249 293 297 287 282 238 226 252 232 233 216 196 220 233 236 223 197 234 252 234 231 242 257 247 235 255 244 206 204 193 184 177 181
199 201 200 198 198 197 183 207 145 168 199 210 284 282 276 307 243 252 229 211 201 205 221 227 242 257 212 176 246 225 266 274 259 253 253 220 218 218 197 193 176 169 164 168
192 194 193 192 189 195 210 214 158 116 142 194 249 265 297 207 210 215 197 198 193 199 227 228 209 195 195 256 240 248 255 252 254 245 230 236 221 193 177 176 171 166 163 164
186 181 177 171 178 185 214 212 217 234 235 224 214 216 256 215 228 226 195 206 169 191 212 228 169 202 219 224 223 242 243 237 249 207 207 214 210 191 175 174 172 168 165 169
175 167 156 164 175 158 158 160 194 216 211 223 207 199 254 216 199 244 208 137 251 205 226 172 186 242 238 244 249 254 252 242 224 183 184 192 192 182 178 182 178 176 170 169
163 146 140 145 148 144 172 187 189 197 218 216 209 216 217 224 161 177 229 210 201 266 234 172 232 255 241 243 248 248 248 246 239 237 248 226 216 187 178 173 171 171 171 174
163 151 128 134 157 172 179 198 205 195 215 196 203 222 200 202 190 148 192 237 86 256 127 99 254 244 248 240 242 244 244 237 225 214 209 200 193 187 174 168 169 172 172 174
150 140 146 150 173 194 210 194 180 182 198 201 185 164 165 180 168 166 183 196 228 337 295 237 238 251 244 236 233 230 212 196 191 186 184 178 172 170 169 166 169 168 167 173
142 146 138 195 185 218 192 190 170 200 200 175 173 148 169 135 162 155 210 221 38 293 269 242 255 259 252 236 205 194 176 180 178 176 169 166 164 164 166 167 165 166 170 177
147 152 198 191 198 208 214 209 182 190 185 161 159 109 133 136 158 199 106 28 263 222 238 222 259 281 246 197 179 176 168 168 171 168 164 162 163 162 161 163 162 166 175 177
168 198 131 145 161 214 207 203 208 171 138 160 128 131 149 199 183 162 205 154 228 252 227 300 316 319 224 185 174 174 170 169 168 166 164 163 163 162 161 160 163 167 177 172
190 183 182 167 193 196 198 198 206 200 174 162 145 176 201 109 130 241 190 207 233 216 331 339 335 312 220 186 177 171 169 168 167 165 166 165 164 165 165 162 164 171 171 174
Wind_Speed_850mb
21 20 19 21 20 20 19 12 5 1 5 7 3 3 7 12 12 7 10 6 9 7 6 7 5 7 4 7 6 8 2 4 2 7 4 0 4 3 7 8 7 5 7 10
22 21 17 19 17 15 14 11 7 8 8 1 5 11 9 7 6 7 4 7 7 4 7 7 6 8 0 3 7 5 8 5 6 5 7 5 5 8 6 10 7 7 9 10
25 22 19 19 16 11 9 5 4 3 14 7 3 6 9 9 10 11 11 9 5 5 6 5 9 7 2 6 1 1 2 1 6 8 8 5 6 6 7 9 7 8 11 8
27 26 22 21 18 10 6 4 5 2 5 6 4 4 6 9 10 7 10 8 4 7 8 10 5 5 10 3 2 4 4 5 3 8 8 3 5 9 11 13 8 10 8 13
27 27 27 25 25 15 14 6 4 3 7 11 4 4 6 2 11 5 9 4 13 6 7 9 12 5 4 7 5 3 3 3 6 6 5 4 8 11 9 9 6 9 8 10
29 26 33 30 31 21 14 12 10 6 6 3 1 7 4 3 11 14 13 11 8 11 9 14 18 17 16 10 6 2 4 4 6 8 8 11 12 11 12 8 7 11 11 15
35 38 36 37 34 28 24 12 9 7 7 3 8 5 10 11 7 9 43 37 7 7 21 22 17 12 10 8 1 6 7 6 4 5 8 3 8 2 1 8 7 6 3 8
48 46 40 42 39 33 27 22 15 6 6 10 18 19 10 21 33 11 14 15 11 21 11 6 9 8 8 5 2 3 2 8 4 4 4 13 3 0 3 4 10 14 13 9
50 46 42 43 40 39 34 28 21 13 2 10 22 7 10 5 7 11 7 14 14 8 6 5 1 6 7 5 1 6 7 8 7 4 4 8 8 2 2 3 10 8 17 13
42 43 44 40 43 42 37 28 26 16 9 18 19 8 5 11 5 5 11 22 10 5 4 3 6 8 5 5 8 8 2 5 8 5 5 15 10 3 2 8 12 4 16 27
44 40 38 41 45 45 40 38 33 26 15 34 28 19 17 17 7 2 14 15 6 7 2 5 6 6 6 5 5 10 12 10 6 4 2 12 12 8 9 8 2 2 8 23
44 40 42 42 42 43 44 45 37 35 33 25 20 27 29 30 28 26 9 6 14 8 3 1 2 5 2 2 6 4 3 11 8 16 11 9 23 8 11 2 7 9 10 17
66 48 47 42 40 38 41 38 28 20 23 44 57 53 24 30 42 34 15 11 9 5 15 6 5 8 6 4 10 4 6 8 5 5 6 17 33 27 30 14 12 13 11 12
54 52 49 43 40 38 37 34 25 26 9 8 17 16 30 27 27 29 33 47 52 54 40 14 7 4 8 6 6 5 6 10 7 10 19 22 31 28 27 24 17 19 18 17
55 55 49 43 41 37 34 31 33 28 18 5 16 39 50 46 40 43 42 37 49 45 9 7 7 9 2 2 3 8 15 13 9 12 19 7 8 7 25 33 29 24 24 32
56 55 51 45 39 37 30 17 38 43 32 6 6 16 39 36 20 16 24 39 37 29 16 13 16 22 9 4 7 14 37 50 47 12 6 14 13 13 20 32 30 26 22 18
59 55 49 42 41 40 35 11 6 10 31 8 9 12 11 17 25 30 26 26 25 21 14 17 30 21 11 3 17 7 28 37 41 36 21 10 19 11 23 30 31 28 23 26
62 54 48 44 37 31 37 22 18 10 9 9 4 6 13 9 7 9 18 17 25 20 14 9 10 11 11 9 19 32 46 59 40 29 29 20 15 19 32 34 38 37 39 40
58 51 49 42 37 27 35 34 32 25 13 6 8 4 6 7 8 8 12 13 4 12 8 10 11 7 11 15 29 38 45 31 18 26 29 20 24 33 40 41 41 40 43 39
65 65 40 16 28 18 24 22 16 14 18 17 10 12 8 6 9 3 2 0 4 4 13 16 8 16 54 62 44 32 25 26 31 32 27 33 37 44 48 43 39 35 40 37
75 26 17 33 46 25 14 12 14 18 8 14 20 49 21 19 6 6 8 4 2 6 9 12 8 10 21 60 87 95 86 60 40 34 27 26 27 48 48 45 38 38 36 30
54 40 49 51 15 10 10 10 9 10 10 18 14 23 41 19 13 7 10 5 2 12 2 3 8 8 37 42 61 75 73 65 57 42 31 30 31 43 46 46 45 37 31 26
70 29 18 17 14 12 14 17 9 10 13 24 29 9 27 19 9 6 5 8 11 3 1 8 9 24 35 48 45 28 30 44 53 47 31 36 43 48 46 46 40 35 31 25
18 17 15 13 12 12 10 9 13 20 25 34 44 14 11 11 9 5 6 4 4 6 4 9 7 41 39 26 29 35 51 52 53 43 45 52 55 52 45 40 38 33 27 21
15 18 15 15 19 19 20 37 21 25 15 36 27 9 8 3 6 5 5 4 8 10 10 9 26 34 30 35 43 49 55 57 52 54 59 58 56 52 47 39 34 26 21 16
20 13 9 8 16 7 20 39 41 28 17 33 14 5 5 6 5 7 13 11 12 8 6 22 32 35 24 42 51 53 55 56 58 63 61 59 55 53 49 42 31 23 17 14
16 9 26 26 28 23 34 37 40 41 28 6 9 11 11 4 5 6 9 11 10 6 28 43 47 35 29 46 51 54 55 58 63 65 60 56 55 51 46 41 32 24 18 13
Wind_Direction_850mb
275 289 298 305 316 317 319 319 344 275 163 350 11 226 202 311 295 349 278 253 228 240 291 285 291 286 213 354 332 341 124 141 196 187 265 263 133 202 192 121 206 94 136 278
258 275 292 296 311 317 320 314 290 236 241 308 315 296 283 255 288 284 273 275 218 201 271 297 235 293 232 323 12 25 353 1 358 27 20 16 159 238 97 81 74 185 132 264
253 257 277 287 294 305 309 309 348 226 215 249 215 325 280 297 302 268 273 262 288 318 299 231 294 305 314 332 81 91 201 219 171 194 222 179 257 217 153 129 121 176 217 253
245 250 257 271 269 272 261 250 259 195 275 276 226 335 283 297 339 310 311 312 281 316 305 314 319 304 313 161 12 58 76 221 211 247 238 263 259 242 187 198 174 165 239 205
237 246 247 251 254 248 230 231 233 241 270 285 278 198 253 305 331 275 308 227 309 320 261 245 291 338 306 286 346 53 45 278 348 305 334 316 276 265 222 223 179 259 170 251
240 241 244 237 244 234 222 229 239 267 279 288 118 233 224 341 339 284 260 310 317 299 280 295 291 280 273 261 298 274 42 52 42 278 345 331 298 235 203 203 188 161 190 227
251 247 234 232 235 232 232 227 210 201 267 229 215 280 321 292 311 264 292 293 231 296 312 296 278 279 269 246 20 195 133 100 92 254 1 284 250 255 253 228 254 180 156 188
247 240 226 224 225 228 232 237 219 226 264 264 290 274 286 309 306 269 260 289 300 317 323 1 349 336 329 239 220 181 153 122 89 110 213 288 339 155 191 175 279 197 187 146
236 227 222 220 218 223 227 228 227 211 199 247 259 298 287 280 295 321 280 325 319 309 76 63 238 252 263 272 211 100 75 69 119 114 115 236 249 261 6 66 298 198 163 155
238 224 218 218 219 217 229 230 226 207 226 268 264 245 258 307 326 285 317 342 333 341 77 134 188 255 224 248 190 177 96 23 167 148 228 286 244 236 90 80 247 34 185 177
232 228 224 224 220 215 219 230 221 206 233 264 260 249 254 277 300 169 320 346 352 2 70 153 245 209 251 300 196 178 175 148 186 89 111 292 175 112 178 216 48 125 152 186
226 230 228 223 219 215 219 225 229 231 230 253 258 258 253 265 268 274 263 255 335 279 43 278 323 291 306 162 275 5 245 187 181 180 215 246 201 201 202 192 176 179 164 167
231 227 226 219 213 215 221 229 224 218 244 266 266 266 281 258 253 250 247 271 256 290 11 333 268 258 130 213 246 254 243 171 196 66 263 238 246 244 242 230 221 193 184 182
213 222 218 214 212 213 222 228 220 217 220 254 272 282 265 267 241 241 242 260 260 266 288 307 255 222 195 237 248 219 223 143 184 263 277 267 265 248 243 217 200 189 179 186
208 215 211 210 212 210 217 226 228 225 216 280 294 284 274 261 253 245 257 250 249 247 251 224 245 246 218 243 41 242 195 196 176 232 235 217 232 260 221 206 199 199 189 169
206 207 207 205 199 202 201 241 241 232 228 249 293 297 287 282 238 226 252 232 233 216 196 220 233 236 223 197 234 252 234 231 242 257 247 235 255 244 206 204 193 184 177 181
199 201 200 198 198 197 183 207 145 168 199 210 284 282 276 307 243 252 229 211 201 205 221 227 242 257 212 176 246 225 266 274 259 253 253 220 218 218 197 193 176 169 164 168
192 194 193 192 189 195 210 214 158 116 142 194 249 265 297 207 210 215 197 198 193 199 227 228 209 195 195 256 240 248 255 252 254 245 230 236 221 193 177 176 171 166 163 164
186 181 177 171 178 185 214 212 217 234 235 224 214 216 256 215 228 226 195 206 169 191 212 228 169 202 219 224 223 242 243 237 249 207 207 214 210 191 175 174 172 168 165 169
175 167 156 164 175 158 158 160 194 216 211 223 207 199 254 216 199 244 208 137 251 205 226 172 186 242 238 244 249 254 252 242 224 183 184 192 192 182 178 182 178 176 170 169
163 146 140 145 148 144 172 187 189 197 218 216 209 216 217 224 161 177 229 210 201 266 234 172 232 255 241 243 248 248 248 246 239 237 248 226 216 187 178 173 171 171 171 174
163 151 128 134 157 172 179 198 205 195 215 196 203 222 200 202 190 148 192 237 86 256 127 99 254 244 248 240 242 244 244 237 225 214 209 200 193 187 174 168 169 172 172 174
150 140 146 150 173 194 210 194 180 182 198 201 185 164 165 180 168 166 183 196 228 337 295 237 238 251 244 236 233 230 212 196 191 186 184 178 172 170 169 166 169 168 167 173
142 146 138 195 185 218 192 190 170 200 200 175 173 148 169 135 162 155 210 221 38 293 269 242 255 259 252 236 205 194 176 180 178 176 169 166 164 164 166 167 165 166 170 177
147 152 198 191 198 208 214 209 182 190 185 161 159 109 133 136 158 199 106 28 263 222 238 222 259 281 246 197 179 176 168 168 171 168 164 162 163 162 161 163 162 166 175 177
168 198 131 145 161 214 207 203 208 171 138 160 128 131 149 199 183 162 205 154 228 252 227 300 316 319 224 185 174 174 170 169 168 166 164 163 163 162 161 160 163 167 177 172
190 183 182 167 193 196 198 198 206 200 174 162 145 176 201 109 130 241 190 207 233 216 331 339 335 312 220 186 177 171 169 168 167 165 166 165 164 165 165 162 164 171 171 174